Volver al catálogo

STARLINK-37537

ActivoComunicacionesSSO
NORAD 69420·PAYLOAD·🇺🇸 United States

Lanzado Jun 7, 2026 desde Vandenberg Space Force Base

Loading…

Próximos Pases (próximas 24 horas)

TLE

ActualizadoSource: CelesTrak SupGP

Época: Sep 15, 2026, 03:15 UTC

1 69420C 26126A   26258.13590278 -.00000317  00000+0 -98250-5 0  2585
2 69420  97.2846 119.4754 0002328  94.8063 291.2180 15.33445811    14

Sigue STARLINK-37537 en tiempo real con AllMySat

Download on the App Store